FREGAT DEB, 45816

Orbit data source: Space-Track

FREGAT DEB, 45816 is space debris in LEO originally from a launch on Mon, 18 Jul 2011 UTC launched from the Tyuratam Missile And Space Complex (TTMTR). Debris objects in space refer to the collection of defunct objects orbiting the Earth. Examples of debris include non-operational satellites, rocket bodies, and fragments generated from explosions, collisions, or faulty payload assembly.

Loading next visibility...
Identifier
45816, 2011-037BA
Orbit
LEO
Country
Flag of CISCIS
Related business
Manufacturer
Lavochkin
Mission
Spacecraft
Bus & Motor
Unknown
Mass
Unknown
Launch date (UTC)
2011-07-18 (14 years ago)
Launch vehicle
Unknown
Launch site
Tyuratam Missile And Space Complex (TTMTR)
Object type
Payload
Rocket body
Debris
Shape & HBR
Unknown shape, 0.1 m
Radar Cross Section
Small (<0.1 m²)

Expand to show TLE details & history
Last TLE update: 1 week ago

TLE from 1 week ago
0 FREGAT DEB
1 45816U 11037BA  25287.86272758  .00027312  00000-0  59230-2 0  9991
2 45816  51.4903 352.6099 1633871 260.7784  80.5414 11.79906543223177
Epoch: 2025-10-14T20:42Z
TLE epoch observation values (Epoch: 2025-10-14T20:42:19.662Z)
Latitude
-0.00007°
Longitude
18.38286°
Altitude
1,770.42 km
Speed
6.997 km/s
True Right ascension
23h 30m 26s
True Declination
0° 00' 00"
Sunlit
Object was in full shadow at epoch
Visualization orbit readout
Latitude
Unknown
Longitude
Unknown
Altitude
Unknown
Speed
Unknown
Apparent Right ascension
Unknown
Apparent Declination
Unknown
Sunlit
N/A
Visualization observer readout
Local Sidereal Time
23:20:14
Azimuth
Unknown
Elevation
Unknown
Doppler factor
Unknown
Orbital elements
Apogee altitude
3,104.28 km
Perigee altitude
440.842 km
Semi-major axis
8,150.698 km
Eccentricity
0.16339
Inclination
51.4903°
RAAN
352.6099°
Arg. of periapsis
260.7784°
True anomaly
99.30762°
Mean anomaly
80.5414°
Eccentric anomaly
89.90278°
Mean motion
2.94952 °/min
Orbital period
122.05 mins
BSTAR
0.005923
Loading maneuver chart data...
Computing Atmospheric mass density...
Loading historical data...
Loading historical data...
Loading historical data...
Loading historical data...
Loading historical data...
Loading historical data...
Loading historical data...

Documentation

Showing up to 5 results
|